Zurück zum Katalog

NIMBUS 2 DEB

AktivSSO
NORAD 47186·DEBRIS·🇺🇸 United States

Gestartet May 15, 1966 von Vandenberg Space Force Base

Loading…

Nächste Überflüge (nächste 24 Stunden)

TLE

AktuellSource: Space-Track

Epoche: Sep 14, 2026, 00:26 UTC

1 47186U 66040BW  26257.01833219  .00000922  00000-0  17458-2 0  9991
2 47186 100.4105 100.8872 0061511  45.4380 315.1746 13.40575210288949

Verfolge NIMBUS 2 DEB in Echtzeit mit AllMySat

Download on the App Store